TimeCDT,TemperatureF,Dew PointF,Humidity,Sea Level PressureIn,VisibilityMPH,Wind Direction,Wind SpeedMPH,Gust SpeedMPH,PrecipitationIn,Events,Conditions,WindDirDegrees,DateUTC
12:53 AM,42.1,37.0,82,30.25,10.0,Calm,Calm,-,N/A,,Clear,0,2012-10-29 05:53:00
1:53 AM,41.0,36.0,82,30.26,10.0,Calm,Calm,-,N/A,,Clear,0,2012-10-29 06:53:00
2:53 AM,42.1,36.0,79,30.26,10.0,Calm,Calm,-,N/A,,Clear,0,2012-10-29 07:53:00
3:53 AM,39.9,36.0,86,30.26,10.0,Calm,Calm,-,N/A,,Clear,0,2012-10-29 08:53:00
4:53 AM,39.9,35.1,83,30.26,10.0,Calm,Calm,-,N/A,,Clear,0,2012-10-29 09:53:00
5:53 AM,37.9,34.0,86,30.27,10.0,Calm,Calm,-,N/A,,Clear,0,2012-10-29 10:53:00
6:53 AM,37.9,34.0,86,30.27,9.0,Calm,Calm,-,N/A,,Clear,0,2012-10-29 11:53:00
7:53 AM,37.9,34.0,86,30.29,8.0,Calm,Calm,-,N/A,,Clear,0,2012-10-29 12:53:00
8:53 AM,43.0,36.0,76,30.32,10.0,ENE,3.5,-,N/A,,Clear,60,2012-10-29 13:53:00
9:53 AM,52.0,37.0,57,30.32,10.0,Calm,Calm,-,N/A,,Clear,0,2012-10-29 14:53:00
10:53 AM,55.9,32.0,40,30.32,10.0,Calm,Calm,-,N/A,,Clear,0,2012-10-29 15:53:00
11:53 AM,59.0,28.9,32,30.31,10.0,NE,3.5,-,N/A,,Clear,50,2012-10-29 16:53:00
12:53 PM,61.0,30.0,31,30.29,10.0,Variable,3.5,-,N/A,,Clear,0,2012-10-29 17:53:00
1:53 PM,63.0,28.0,27,30.25,10.0,Calm,Calm,-,N/A,,Clear,0,2012-10-29 18:53:00
3:53 PM,64.9,28.0,25,30.19,10.0,Calm,Calm,-,N/A,,Clear,0,2012-10-29 20:53:00
4:53 PM,66.0,28.9,25,30.18,10.0,Calm,Calm,-,N/A,,Clear,0,2012-10-29 21:53:00
5:53 PM,64.9,30.0,27,30.17,10.0,Calm,Calm,-,N/A,,Clear,0,2012-10-29 22:53:00
6:53 PM,57.9,39.0,49,30.17,9.0,Calm,Calm,-,N/A,,Clear,0,2012-10-29 23:53:00
7:53 PM,54.0,39.9,59,30.17,10.0,East,3.5,-,N/A,,Clear,90,2012-10-30 00:53:00
8:53 PM,48.9,39.0,69,30.17,10.0,SE,4.6,-,N/A,,Clear,130,2012-10-30 01:53:00
9:53 PM,48.9,37.9,66,30.17,10.0,SE,5.8,-,N/A,,Clear,130,2012-10-30 02:53:00
10:53 PM,51.1,39.0,63,30.17,10.0,Calm,Calm,-,N/A,,Clear,0,2012-10-30 03:53:00
11:53 PM,48.9,37.9,66,30.16,10.0,Calm,Calm,-,N/A,,Clear,0,2012-10-30 04:53:00